Location: Cosy Dell
(34.2789°N, 117.4537°W)
Time: 11:04:12
(UTC+00:00)

Mugunghwa Rocket - Pass Details

Date: 14 July 2020
Orbit: 936 x 1372 km, 26.7° (Epoch: 08 August)

Event Time Altitude Azimuth Distance (km) Brightness Sun altitude
Rises 05:07:39 0° 247° (WSW) 3,602 7.2 -21.3°
Reaches altitude 10° 05:10:20 10° 240° (WSW) 2,686 6.4 -21.7°
Maximum altitude 05:16:21 41° 171° (S) 1,414 4.4 -22.5°
Enters shadow 05:16:45 41° 163° (SSE) 1,427 4.4 -22.5°
